星链-30581 (STARLINK-30581 )

导读

STARLINK-30581是美国太空探索技术公司(SpaceX)星链卫星互联网项目中的低轨卫星,于2023年10月18日发射,目前处于在轨状态。该卫星采用Starlink v2.0 mini平台,运行在倾角43.000°、近地点约558公里的近地轨道,每日绕地球15圈。它搭载先进推进系统与激光通信技术,旨在为全球,尤其是偏远地区,提供高速低延迟宽带互联网服务,助力完善全球星链网络覆盖。

基本信息
目录编号:
58096
目录名称:
STARLINK-30581
国际标识:
2023-160X
轨道中心:
EARTH
卫星名称:
星链-30581
卫星全名:
星链-30581 (STARLINK-30581 )
卫星状态:
在轨 (已飞行1052 天)
发射日期:
2023-10-18 UTC
国别 :
美国 (US)
星等 :
--
轨道信息
数据来源 国际轨道数据
星历时间: 2026-09-04T07:48:31+0800
19小时前
查看轨道信息
半长轴: 6861.202km
偏心率: 0.0001501
轨道倾角: 43.005°
近地点辐角 262.906°
升交点赤经 151.021°
平近点角 97.162°
近地点: 482.035km
远地点: 484.095km
周期: 94.267分钟
每日圈数: 15.275747
详细信息
固有亮度:
5
最大亮度:
0.3
卫星平台:
Starlink v2.0 mini
覆盖范围:
全球
运营商:
太空探索技术公司
运营商所在国:
美国
制造商(研发单位):
太空探索技术公司
制造商所在国:
美国
使用方式:
暂无
卫星简介
星链(Starlink)计划是由太空探索技术公司(SpaceX)提出的一个巨型低轨卫星互联网星座项目,计划在2019年至2024年间在太空搭建由约1.2万颗卫星组成的“星链”网络,其中1584颗将部署在地球上空550千米处的近地轨道,并从2020年开始工作。该卫星仍在工作。
2D轨道图
3D轨道图
轨道高度分析图
轨道倾角分析图
轨道综合分析图
查看轨道综合分析图